TimeCST,TemperatureF,Dew PointF,Humidity,Sea Level PressureIn,VisibilityMPH,Wind Direction,Wind SpeedMPH,Gust SpeedMPH,PrecipitationIn,Events,Conditions,WindDirDegrees,DateUTC
12:53 AM,10.0,3.0,73,29.92,10.0,SE,9.2,-,N/A,,Overcast,140,2012-12-12 06:53:00
1:53 AM,10.9,3.9,73,29.89,10.0,ESE,9.2,-,N/A,,Overcast,120,2012-12-12 07:53:00
2:12 AM,12.2,5.0,73,29.83,10.0,SE,5.8,-,N/A,,Overcast,140,2012-12-12 08:12:00
2:51 AM,12.2,5.0,73,29.80,10.0,SE,11.5,-,N/A,,Overcast,130,2012-12-12 08:51:00
2:53 AM,12.9,5.0,71,29.86,10.0,SE,10.4,-,N/A,,Overcast,130,2012-12-12 08:53:00
3:53 AM,15.1,7.0,70,29.82,10.0,SE,11.5,-,N/A,,Mostly Cloudy,130,2012-12-12 09:53:00
4:05 AM,15.8,8.6,73,29.75,10.0,SE,12.7,-,N/A,,Scattered Clouds,130,2012-12-12 10:05:00
4:53 AM,18.0,10.0,71,29.80,10.0,SSE,11.5,-,N/A,,Overcast,150,2012-12-12 10:53:00
5:53 AM,19.9,14.0,78,29.78,10.0,SE,11.5,-,N/A,,Overcast,140,2012-12-12 11:53:00
6:53 AM,21.9,15.1,75,29.78,10.0,SSE,17.3,21.9,N/A,,Overcast,160,2012-12-12 12:53:00
7:53 AM,21.0,15.1,78,29.77,10.0,SSE,18.4,25.3,N/A,,Overcast,160,2012-12-12 13:53:00
8:53 AM,21.9,15.1,75,29.77,9.0,South,13.8,-,N/A,,Overcast,170,2012-12-12 14:53:00
9:53 AM,23.0,16.0,74,29.78,10.0,South,17.3,-,N/A,,Mostly Cloudy,170,2012-12-12 15:53:00
10:53 AM,25.0,17.1,72,29.81,-9999.0,South,9.2,-,N/A,,Unknown,170,2012-12-12 16:53:00
11:53 AM,28.0,18.0,66,29.80,-9999.0,North,-9999.0,-,N/A,,Clear,0,2012-12-12 17:53:00
12:53 PM,28.0,17.1,63,29.80,10.0,SSW,8.1,-,N/A,,Clear,200,2012-12-12 18:53:00
1:53 PM,27.0,16.0,63,29.81,10.0,WSW,4.6,-,N/A,,Clear,240,2012-12-12 19:53:00
2:53 PM,26.1,16.0,66,29.83,10.0,WNW,4.6,-,N/A,,Clear,300,2012-12-12 20:53:00
3:53 PM,24.1,16.0,71,29.86,8.0,NNW,9.2,-,N/A,,Clear,330,2012-12-12 21:53:00
4:53 PM,21.9,15.1,75,29.88,8.0,NNW,13.8,-,N/A,,Clear,340,2012-12-12 22:53:00
5:53 PM,19.0,12.0,74,29.92,10.0,North,15.0,-,N/A,,Partly Cloudy,350,2012-12-12 23:53:00
6:45 PM,17.6,10.4,73,29.89,10.0,North,12.7,-,N/A,,Mostly Cloudy,360,2012-12-13 00:45:00
6:53 PM,17.1,10.0,74,29.94,10.0,North,12.7,-,N/A,,Mostly Cloudy,350,2012-12-13 00:53:00
7:53 PM,15.1,9.0,77,29.97,10.0,North,12.7,-,N/A,,Overcast,10,2012-12-13 01:53:00
8:21 PM,15.8,8.6,73,29.93,10.0,North,10.4,-,N/A,,Overcast,10,2012-12-13 02:21:00
8:53 PM,15.1,8.1,74,30.00,10.0,NNW,9.2,-,N/A,,Mostly Cloudy,330,2012-12-13 02:53:00
9:53 PM,12.9,6.1,74,30.01,10.0,NNW,13.8,-,N/A,,Overcast,340,2012-12-13 03:53:00
10:53 PM,12.0,5.0,73,30.01,10.0,North,10.4,-,N/A,,Overcast,10,2012-12-13 04:53:00
11:53 PM,12.0,5.0,73,30.02,10.0,North,8.1,-,N/A,,Overcast,10,2012-12-13 05:53:00